sat.trackr.live / text

‹ back to catalog

STARLINK-11455 [DTC]

NORAD 62463 · 2024-254B

PAYLOAD ACTIVE UNKNOWN

§ Identity

Operator
Country
US
Launch date
2024-12-31
Launch site
AFETR
Launch vehicle
Mass (kg)
RCS (m²)

Purposes: comms

External: N2YO · Heavens-Above · Gunter

§ Orbital elements

Epoch: 2026-09-21T07:40:40.992960Z

Period
91.66 min
Inclination
43.0025°
Eccentricity
0.0001041
Mean motion
15.70998617 rev/d
Perigee alt
355.3 km
Apogee alt
356.7 km
Semi-major
6,734.2 km
B*
1.0750e-3
RAAN
124.2512°
Arg perigee
343.1002°
Mean anomaly
16.9831°
Rev number
10,016

§ Raw data

STARLINK-11455 [DTC]1 62463U 24254B   26264.31991890  .00140787  00000+0  10750-2 0  99992 62463  43.0025 124.2512 0001041 343.1002  16.9831 15.70998617100162

JSON: /api/v1/satellites/62463 · /tle

For live sub-satellite position, see the globe view (requires WebGL).

§ Visibility from observer

Set your observer location to see the next 7 days of passes ≥ 10°. The values pass through the URL so the page stays shareable.

No JS? Fill the form by hand. The geolocation button needs JavaScript.